Weather History for Stevensville, MD

Change the Weather History Date:

Saturday, January 19, 2013

  Actual Average (KESN) Record (KESN)
Temperature  
Mean Temperature 42 °F -  
Max Temperature 50 °F 43 °F 67 °F (1951)
Min Temperature 35 °F 24 °F 4 °F (1957)
Degree Days  
Heating Degree Days 22    
Moisture  
Dew Point 29 °F    
Average Humidity 61    
Maximum Humidity 75    
Minimum Humidity 46    
Precipitation  
Precipitation 0.00 in - - ()
Sea Level Pressure  
Sea Level Pressure 30.25 in    
Wind  
Wind Speed 11 mph (South)    
Max Wind Speed 18 mph    
Max Gust Speed 26 mph    
Visibility 10 miles    
Events      
Averages and records for this station are not official NWS values.
T = Trace of Precipitation, MM = Missing Value Source: NWS Daily Summary

Daily Weather History Graph

Daily Weather History Graph

Search for Another Location

Airport:

Trip Planner

Search our weather history database for the weather conditions in past years. The results will help you decide how hot, cold, wet, or windy it might be!

Date:

Astronomy

Jan. 19, 2013 Rise Set
Actual Time 7:20 AM EST 5:11 PM EST
Civil Twilight 6:51 AM EST 5:40 PM EST
Nautical Twilight 6:19 AM EST 6:13 PM EST
Astronomical Twilight 5:47 AM EST 6:45 PM EST
Moon 11:36 AM EST (1/19) 12:53 AM EST (1/19)
Length of Visible Light 10h 49m
Length of Day
9h 51m
First Quarter, 57% of the Moon is Illuminated
Jan 19
First Quarter
Jan 26
Full
Feb 3
Last Quarter
Feb 10
New
Feb 17
First Quarter

Hourly Weather History & Observations

Time (EST) Temp. Windchill Dew Point Humidity Pressure Visibility Wind Dir Wind Speed Gust Speed Precip Events Conditions
12:41 AM 35.6 °F 28.0 °F 23.0 °F 60% 30.43 in 10.0 mi South 10.4 mph - N/A   Clear
1:02 AM 35.6 °F 28.0 °F 23.0 °F 60% 30.42 in 10.0 mi South 10.4 mph - N/A   Clear
1:23 AM 35.6 °F 28.0 °F 23.0 °F 60% 30.42 in 10.0 mi South 10.4 mph - N/A   Clear
1:45 AM 35.6 °F 28.0 °F 24.8 °F 65% 30.41 in 10.0 mi South 10.4 mph - N/A   Clear
2:06 AM 35.6 °F 27.5 °F 24.8 °F 65% 30.42 in 10.0 mi South 11.5 mph - N/A   Clear
2:27 AM 35.6 °F 27.5 °F 24.8 °F 65% 30.42 in 10.0 mi South 11.5 mph 18.4 mph N/A   Clear
2:49 AM 35.6 °F 28.0 °F 26.6 °F 70% 30.41 in 10.0 mi South 10.4 mph - N/A   Clear
3:10 AM 35.6 °F 27.5 °F 26.6 °F 70% 30.41 in 10.0 mi South 11.5 mph - N/A   Clear
3:31 AM 35.6 °F 28.6 °F 26.6 °F 70% 30.41 in 10.0 mi South 9.2 mph - N/A   Clear
3:53 AM 35.6 °F 28.0 °F 26.6 °F 70% 30.40 in 10.0 mi SSW 10.4 mph - N/A   Clear
4:14 AM 35.6 °F 28.0 °F 26.6 °F 70% 30.39 in 10.0 mi SSW 10.4 mph 18.4 mph N/A   Clear
4:35 AM 35.6 °F 29.2 °F 26.6 °F 70% 30.38 in 10.0 mi South 8.1 mph - N/A   Clear
4:57 AM 35.6 °F 28.6 °F 28.4 °F 75% 30.38 in 10.0 mi South 9.2 mph 16.1 mph N/A   Clear
5:18 AM 35.6 °F 27.5 °F 28.4 °F 75% 30.38 in 10.0 mi SSW 11.5 mph - N/A   Clear
5:39 AM 35.6 °F 27.5 °F 28.4 °F 75% 30.38 in 10.0 mi South 11.5 mph 18.4 mph N/A   Clear
6:01 AM 35.6 °F 29.2 °F 28.4 °F 75% 30.38 in 10.0 mi South 8.1 mph - N/A   Clear
6:22 AM 35.6 °F 28.6 °F 28.4 °F 75% 30.37 in 10.0 mi South 9.2 mph - N/A   Clear
6:43 AM 35.6 °F 28.0 °F 26.6 °F 70% 30.36 in 10.0 mi SSW 10.4 mph 18.4 mph N/A   Clear
7:04 AM 35.6 °F 27.5 °F 26.6 °F 70% 30.36 in 10.0 mi SSW 11.5 mph - N/A   Clear
7:26 AM 35.6 °F 27.5 °F 26.6 °F 70% 30.37 in 10.0 mi SSW 11.5 mph 16.1 mph N/A   Clear
7:47 AM 35.6 °F 26.6 °F 26.6 °F 70% 30.36 in 10.0 mi SSW 13.8 mph 20.7 mph N/A   Clear
8:08 AM 35.6 °F 27.5 °F 26.6 °F 70% 30.36 in 10.0 mi SSW 11.5 mph 18.4 mph N/A   Clear
8:29 AM 37.4 °F 28.2 °F 26.6 °F 65% 30.37 in 10.0 mi SSW 16.1 mph 20.7 mph N/A   Clear
8:51 AM 37.4 °F 28.9 °F 26.6 °F 65% 30.36 in 10.0 mi SSW 13.8 mph 19.6 mph N/A   Clear
9:12 AM 37.4 °F 29.3 °F 26.6 °F 65% 30.36 in 10.0 mi SSW 12.7 mph 21.9 mph N/A   Clear
9:55 AM 39.2 °F 30.8 °F 26.6 °F 61% 30.36 in 10.0 mi South 15.0 mph 26.5 mph N/A   Clear
10:16 AM 41.0 °F 32.2 °F 26.6 °F 57% 30.35 in 10.0 mi SSW 18.4 mph 23.0 mph N/A   Clear
10:37 AM 42.8 °F 35.8 °F 26.6 °F 53% 30.33 in 10.0 mi SSW 13.8 mph 26.5 mph N/A   Clear
10:58 AM 42.8 °F 35.4 °F 26.6 °F 53% 30.32 in 10.0 mi SSW 15.0 mph 23.0 mph N/A   Clear
11:20 AM 42.8 °F 36.6 °F 26.6 °F 53% 30.30 in 10.0 mi SSW 11.5 mph 23.0 mph N/A   Clear
11:41 AM 44.6 °F 38.4 °F 26.6 °F 49% 30.28 in 10.0 mi SSW 12.7 mph 21.9 mph N/A   Clear
12:02 PM 44.6 °F 37.8 °F 26.6 °F 49% 30.26 in 10.0 mi SSW 15.0 mph 19.6 mph N/A   Clear
12:23 PM 46.4 °F 41.5 °F 26.6 °F 46% 30.25 in 10.0 mi South 10.4 mph - N/A   Clear
12:45 PM 48.2 °F - 28.4 °F 46% 30.23 in 10.0 mi South 12.7 mph 17.3 mph N/A   Clear
1:06 PM 48.2 °F - 28.4 °F 46% 30.22 in 10.0 mi South 13.8 mph 20.7 mph N/A   Clear
2:10 PM 50.0 °F - 30.2 °F 47% 30.19 in 10.0 mi SSE 11.5 mph - N/A   Clear
2:31 PM 50.0 °F - 30.2 °F 47% 30.18 in 10.0 mi SSE 13.8 mph - N/A   Clear
2:52 PM 50.0 °F - 30.2 °F 47% 30.16 in 10.0 mi SSE 11.5 mph - N/A   Clear
3:13 PM 50.0 °F - 30.2 °F 47% 30.16 in 10.0 mi SSE 11.5 mph 17.3 mph N/A   Clear
3:35 PM 50.0 °F - 32.0 °F 50% 30.15 in 10.0 mi South 13.8 mph - N/A   Clear
3:56 PM 50.0 °F - 32.0 °F 50% 30.13 in 10.0 mi SSE 10.4 mph - N/A   Clear
4:17 PM 48.2 °F - 32.0 °F 54% 30.12 in 10.0 mi South 13.8 mph 17.3 mph N/A   Clear
4:38 PM 46.4 °F 41.1 °F 32.0 °F 57% 30.12 in 10.0 mi South 11.5 mph 16.1 mph N/A   Clear
5:00 PM 46.4 °F 41.5 °F 32.0 °F 57% 30.12 in 10.0 mi South 10.4 mph - N/A   Clear
5:21 PM 46.4 °F 41.5 °F 32.0 °F 57% 30.12 in 10.0 mi South 10.4 mph - N/A   Clear
5:42 PM 44.6 °F 38.8 °F 32.0 °F 61% 30.11 in 10.0 mi South 11.5 mph - N/A   Clear
6:04 PM 44.6 °F 39.7 °F 32.0 °F 61% 30.11 in 10.0 mi South 9.2 mph - N/A   Clear
6:25 PM 44.6 °F 39.2 °F 33.8 °F 66% 30.11 in 10.0 mi South 10.4 mph - N/A   Clear
6:46 PM 44.6 °F 40.7 °F 32.0 °F 61% 30.10 in 10.0 mi South 6.9 mph - N/A   Clear
7:29 PM 44.6 °F 39.2 °F 32.0 °F 61% 30.10 in 10.0 mi South 10.4 mph 16.1 mph N/A   Clear
7:50 PM 44.6 °F 38.8 °F 32.0 °F 61% 30.10 in 10.0 mi South 11.5 mph - N/A   Clear
8:32 PM 44.6 °F 39.2 °F 32.0 °F 61% 30.08 in 10.0 mi South 10.4 mph - N/A   Clear
8:54 PM 44.6 °F 38.4 °F 30.2 °F 57% 30.07 in 10.0 mi South 12.7 mph 16.1 mph N/A   Clear
9:15 PM 44.6 °F 39.2 °F 30.2 °F 57% 30.07 in 10.0 mi South 10.4 mph 19.6 mph N/A   Clear
9:36 PM 44.6 °F 38.4 °F 30.2 °F 57% 30.06 in 10.0 mi South 12.7 mph 18.4 mph N/A   Clear
9:57 PM 44.6 °F 39.7 °F 32.0 °F 61% 30.05 in 10.0 mi South 9.2 mph 16.1 mph N/A   Clear
10:19 PM 44.6 °F 38.8 °F 32.0 °F 61% 30.05 in 10.0 mi SSW 11.5 mph 17.3 mph N/A   Clear
10:40 PM 44.6 °F 39.7 °F 32.0 °F 61% 30.04 in 10.0 mi SSW 9.2 mph 18.4 mph N/A   Clear
11:01 PM 44.6 °F 39.7 °F 30.2 °F 57% 30.03 in 10.0 mi SSW 9.2 mph 17.3 mph N/A   Clear
11:23 PM 44.6 °F 39.2 °F 30.2 °F 57% 30.01 in 10.0 mi SSW 10.4 mph - N/A   Clear